AL YAH 3

Last updated on Tue Jul 01 2025 00:02:47 GMT+0000 (Coordinated Universal Time)

1 43174U 18012A 25181.42104671 -.00000156 00000+0 00000+0 0 9994 2 43174 0.6420 87.7528 0003847 0.3124 322.1227 1.00271080 27313
UTC large
Height (km)
Speed (km/s)
/
Latitude / Longitude
Inclination (degrees)
Orbital Period (minutes)
Azimuth
Elevation
Range (km)
Doppler Factor

Next 0 passes for location: London (51.5072 / 0.1276)

Sorry there are no passes over London.